Notices

What's New in latest Release from April 7th, 2021:

- Updated Glossary, including Speed of Maximum Gust, and Total Hourly Precipitation

- Updated national and regional climate services offices contacts and prices information

- Addition of station inventory lists for 1981-2010, 1971-2000, and 1961-1990 Normals.

If you haven't already, please take our survey and provide feedback about our website: https://eccc.sondage-survey.ca/f/LanguageSelection.aspx?s=442ca660-fcf1-47c0-95a9-59707d6fd709

Hourly Data Report for January 06, 2012

HALIFAX STANFIELD INT'L A
NOVA SCOTIA

44°52'48.060" N
63°30'00.050" W
145.40 m
8202250
71395
YHZ

Download Data

Hourly Data (January 2012)
Hourly Data Report for January 6, 2012
TIME
LST
Temp Definition
°C
Dew Point Definition
°C
Rel Hum Definition
%
Precip. Amount Definition
mm

Wind Dir Definition
10's deg

Wind Spd Definition
km/h
Visibility Definition
km
Stn Press Definition
kPa
Hmdx Definition


Wind Chill Definition


Weather Definition


00:00 -4.5 -6.0 89   26 20 24.1 98.74   -11 Mainly Clear
01:00 -5.0 -6.3 91   29 11 24.1 98.80   -10 Mostly Cloudy
02:00 -5.5 -6.8 91   29 11 24.1 98.84   -10 Mainly Clear
03:00 -6.1 -7.7 88   29 15 24.1 98.94   -12 Mostly Cloudy
04:00 -7.0 -9.5 82   31 19 24.1 98.99   -14 Mostly Cloudy
05:00 -8.3 -11.1 80   31 15 24.1 99.06   -15 Mainly Clear
06:00 -9.6 -12.0 83   31 7 24.1 99.14   -14 Mainly Clear
07:00 -9.0 -11.9 79   31 13 24.1 99.23   -15 Mainly Clear
08:00 -9.2 -12.3 78   32 9 24.1 99.34   -14 Mainly Clear
09:00 -9.4 -12.6 77   33 17 24.1 99.44   -16 Mostly Cloudy
10:00 -9.7 -14.7 67   32 17 24.1 99.52   -17 Mostly Cloudy
11:00 -9.2 -14.5 65   32 17 24.1 99.53   -16 Mainly Clear
12:00 -8.0 -14.2 61   31 13 24.1 99.49   -14 Mainly Clear
13:00 -7.7 -14.5 58   32 15 24.1 99.44   -14 Mainly Clear
14:00 -7.4 -14.7 56   31 9 24.1 99.43   -12 Mainly Clear
15:00 -7.3 -14.6 56   29 7 24.1 99.49   -11 Mainly Clear
16:00 -8.4 -13.9 64   29 6 24.1 99.51   -12 Mainly Clear
17:00 -9.7 -12.8 78     0 24.1 99.51     Mainly Clear
18:00 -10.1 -13.0 79   16 6 24.1 99.54   -14 Mainly Clear
19:00 -10.1 -12.8 81   15 9 24.1 99.57   -15 Mainly Clear
20:00 -9.2 -11.9 81   14 9 24.1 99.60   -14 Cloudy
21:00 -8.5 -12.5 73   12 9 24.1 99.55   -13 Cloudy
22:00 -8.0 -11.4 76   13 13 24.1 99.54   -14 Snow
23:00 -7.8 -10.2 83   8 4 9.7 99.53   -10 Snow

Notes on Data Quality.

Legend

  • E = Estimated
  • M = Missing
  • NA = Not Available*
  • [empty] = Indicates an unobserved value
Date modified: